Regional Weather Roundup
Issued by NWS Tiyan, Guam

Home | Current Version | Previous Version | Text Only | Print | Product List | Glossary On
Versions: 1 2 3 4 5 6 7 8 9 10 11 12 13 14 15 16 17 18 19 20 21 22 23 24 25 26 27 28 29 30 31 32 33 34 35 36 37 38 39 40 41 42 43 44 45 46 47 48 49 50
000
ASGM40 PGUM 140412
RWRGUM
WEATHER ROUNDUP FOR THE MARIANAS
NATIONAL WEATHER SERVICE TIYAN GU
200 PM CHST THU DEC 14 2017

GUZ001>004-140500-
MARIANA ISLANDS-

CITY           SKY/WX    TMP DP  RH WIND       PRES   REMARKS
GUAM AIRPORT   PTSUNNY   86  79  79 SE9       29.76F HX  99
ANDERSEN AFB   PTSUNNY   84  77  79 E9        29.77F HX  94
ROTA AIRPORT   PTSUNNY   82  75  78 E14       29.76F
TINIAN AP      MOSUNNY   84  77  79 E10       29.74F HX  94
SAIPAN AP      CLOUDY    88  79  74 E13       29.75F HX 102

$$




USA.gov is the U.S. government's official web portal to all federal, state and local government web resources and services.